Regional Weather Roundup
Issued by NWS Cleveland, OH

Home | Current Version | Previous Version | Graphics & Text | Print | Product List | Glossary On
Versions: 1 2 3 4 5 6 7 8 9 10 11 12 13 14 15 16 17 18 19 20 21 22 23 24 25 26 27 28 29 30 31 32 33 34 35 36 37 38 39 40 41 42 43 44 45 46 47 48 49 50
000
ASUS41 KCLE 011400
RWRCLE
OHIO REGIONAL WEATHER ROUNDUP
NATIONAL WEATHER SERVICE WILMINGTON, OH
1000 AM EDT WED JUL 01 2015

NOTE: "FAIR" INDICATES FEW OR NO CLOUDS BELOW 12,000 FEET WITH NO
SIGNIFICANT WEATHER AND/OR OBSTRUCTIONS TO VISIBILITY.

OHZ001>008-015>018-024>027-034-035-043-044-011500-
   NORTHWEST OHIO

CITY           SKY/WX    TMP DP  RH WIND       PRES   REMARKS
DEFIANCE       CLOUDY    62  55  77 W8        29.93R
FINDLAY        CLOUDY    63  58  83 W9        29.91S
TOLEDO EXPRESS PTSUNNY   66  59  78 W9        29.90R
TOLEDO EXEC    CLOUDY    67  59  75 W12       29.90R
LIMA           SUNNY     65  57  75 NW7       29.92R
$$

OHZ009>014-019>023-028>033-038-089-011500-
   NORTHEAST OHIO

CITY           SKY/WX    TMP DP  RH WIND       PRES   REMARKS
CLE-HOPKINS    CLOUDY    64  60  87 N6        29.89R
CLE-LAKEFRONT  CLOUDY    65  59  81 N5        29.87R
CUY CO. ARPT   CLOUDY    64  63  94 NW9       29.87S
LORAIN-ELYRIA  CLOUDY    64  61  90 W8        29.89R
ASHTABULA      CLOUDY    62  60  93 NW8       29.87R
AKRON-CANTON   PTSUNNY   67  60  78 W10       29.89R HAZE
WOOSTER        NOT AVBL
MANSFIELD      CLOUDY    62  60  93 W3        29.92R
YOUNGSTOWN     PTSUNNY   65  62  90 W12       29.86R FOG
$$

OHZ042-051>053-060>062-070>072-077>081-011500-
  SOUTHWEST OHIO

CITY           SKY/WX    TMP DP  RH WIND       PRES   REMARKS
CINC-COVINGTON MOSUNNY   71  61  70 CALM      29.96R
CINC-LUNKEN    SUNNY     66  64  93 CALM      29.96R
HAMILTON       SUNNY     70  60  70 N5        29.96R
DAYTON         NOT AVBL
WRIGHT-PAT AFB NOT AVBL
DAYTON GENERAL MOSUNNY   68  58  70 NW7       29.94R
WILMINGTON     PTSUNNY   68  56  65 VRB5      29.95R
$$

OHZ036-037-039>041-045>050-054>059-063>069-073>076-082>088-011500-
  CENTRAL AND SOUTHEAST OHIO

CITY           SKY/WX    TMP DP  RH WIND       PRES   REMARKS
COLUMBUS       PTSUNNY   67  60  78 NW5       29.91R
OSU AIRPORT    SUNNY     68  60  75 W8        29.92R
BOLTON FIELD   SUNNY     66  63  88 NW6       29.93R
RICKENBACK AFB NOT AVBL
NEWARK         PTSUNNY   69  60  73 W6        29.92R
MARION         CLOUDY    62  59  90 NW7       29.93R FOG
LANCASTER      SUNNY     69  60  73 VRB6      29.93R
ZANESVILLE     PTSUNNY   67  59  75 W8        29.92R HAZE
NEW PHILLY     CLOUDY    64  60  87 W5        29.91R
$$



USA.gov is the U.S. government's official web portal to all federal, state and local government web resources and services.